Flag for Canada Weather past 2 weeks in Laval, Quebec, Canada

Now
41 °F

Clear.


Feels Like: 41 °F
Forecast: 39 / 55 °F
Wind: 2 mph from North

Location: Montreal / Mirabel

Current Time: Apr 18, 2015 at 3:14:01 AM

Latest Report: Apr 18, 2015 at 2:00 AM


Visibility: 25 mi

Pressure: 29.97 "Hg

Humidity: 49%

Dew point: 23 °F

Location of LavalLocation

Historic Weather in Laval — Graph

°F

Laval temperature yesterday

Maximum temperature yesterday: 66 °F (at 2:00 PM)
Minimum temperature yesterday: 48 °F (at 12:00 AM)
Average temperature yesterday: 57 °F

Past Weeks' High & Low Weather Summary

 TemperatureHumidityPressure
High72 °F (Apr 13, 3:00 PM)100% (Apr 3, 1:00 AM)30.52 "Hg (Apr 3, 1:00 AM)
Low14 °F (Apr 6, 6:00 AM)12% (Apr 15, 3:00 PM)29.43 "Hg (Apr 10, 6:00 PM)
Average41 °F57%30.07 "Hg
* Reported Apr 3 1:00 AM — Apr 18 1:00 AM, Laval, Weather by CustomWeather, © 2015

Note: Actual official high and low records may vary slightly from our data, if they occured in-between our weather recording intervals... More about our weather records

Advertising

Laval weather history for previous 24 hours

 ConditionsComfort  
Time TempWeatherWind HumidityBarometerVisibility
1:00 AM
Sat, Apr 18
45 °FPassing clouds.5 mph42%29.97 "Hg25 mi
12:00 AM48 °FPassing clouds.8 mph37%29.96 "Hg25 mi
11:00 PM
Fri, Apr 17
48 °FPassing clouds.2 mph37%29.93 "Hg25 mi
10:00 PM54 °FPassing clouds.6 mph30%29.90 "Hg25 mi
9:00 PM57 °FPassing clouds.8 mph39%29.89 "Hg25 mi
8:00 PM61 °FPassing clouds.8 mph36%29.85 "Hg25 mi
7:00 PM64 °FPassing clouds.14 mph30%29.83 "Hg25 mi
6:00 PM66 °FBroken clouds.10 mph30%29.80 "Hg45 mi
5:00 PM66 °FPartly sunny.9 mph32%29.80 "Hg45 mi
4:00 PM66 °FPartly sunny.12 mph35%29.79 "Hg45 mi
3:00 PM66 °FScattered clouds.17 mph37%29.81 "Hg45 mi
2:00 PM66 °FPassing clouds.10 mph40%29.82 "Hg45 mi
1:00 PM64 °FScattered clouds.10 mph46%29.83 "Hg45 mi
12:00 PM59 °FPartly sunny.8 mph59%29.87 "Hg35 mi
11:00 AM57 °FBroken clouds.13 mph59%29.89 "Hg45 mi
10:00 AM55 °FPartly sunny.16 mph63%29.89 "Hg45 mi
9:00 AM52 °FPartly sunny.10 mph67%29.90 "Hg45 mi
8:00 AM52 °FPartly sunny.10 mph58%29.93 "Hg45 mi
7:00 AM50 °FPassing clouds.5 mph67%29.93 "Hg35 mi
6:00 AM52 °FOvercast.6 mph62%29.93 "Hg25 mi
5:00 AM52 °FOvercast.5 mph58%29.93 "Hg25 mi
4:00 AM52 °FOvercast.7 mph50%29.95 "Hg25 mi
3:00 AM54 °FMostly cloudy.8 mph44%29.96 "Hg25 mi
Weather by CustomWeather, © 2015

See weather overviewHow to use our weather pages